UTA205 USTR-UUWW

Flight info

Callsign UTA205
Flight time 1h 15m
Altitude 36000
Route K0856F360 BEPAR T448 BANAM T348 EKB M864 AGNOK T796 ORTIM L158 DIMGI
Aircraft B738/M-SDE2E3FGHIRWXY/LB1

Departure

Time 2026-04-25 05:33
Airport Roshchino International Airport (USTR)

Arrival

Time 2026-04-25 06:49
Airport Vnukovo International Airport (UUWW)
Time Latitude Longitude Altitude Speed Heading
2026-04-25 04:52 57.18051 65.34846 339 ft 0 kts 45°
2026-04-25 05:23 57.18050 65.34844 339 ft 0 kts 45°
2026-04-25 05:23 57.18047 65.34838 339 ft 2 kts 45°
2026-04-25 05:23 57.18038 65.34823 335 ft 2 kts 45°
2026-04-25 05:23 57.18030 65.34807 338 ft 2 kts 45°
2026-04-25 05:24 57.18022 65.34792 339 ft 2 kts 45°
2026-04-25 05:24 57.18013 65.34777 339 ft 2 kts 53°
2026-04-25 05:24 57.18007 65.34759 339 ft 2 kts 66°
2026-04-25 05:24 57.18003 65.34739 338 ft 2 kts 95°
2026-04-25 05:25 57.18004 65.34726 339 ft 0 kts 114°
2026-04-25 05:29 57.18004 65.34727 335 ft 1 kts 114°
2026-04-25 05:29 57.17964 65.34812 336 ft 17 kts 136°
2026-04-25 05:29 57.17855 65.35009 338 ft 24 kts 135°
2026-04-25 05:30 57.17741 65.35224 338 ft 23 kts 134°
2026-04-25 05:30 57.17631 65.35428 335 ft 22 kts 133°
2026-04-25 05:30 57.17525 65.35627 337 ft 21 kts 134°
2026-04-25 05:30 57.17417 65.35703 337 ft 16 kts 182°
2026-04-25 05:31 57.17384 65.35699 339 ft 0 kts 187°
2026-04-25 05:31 57.17337 65.35659 339 ft 17 kts 214°
2026-04-25 05:31 57.17301 65.35498 334 ft 14 kts 295°
2026-04-25 05:32 57.17313 65.35471 339 ft 0 kts 314°
2026-04-25 05:32 57.17460 65.35199 340 ft 66 kts 315°
2026-04-25 05:33 57.17952 65.34280 340 ft 132 kts 314°
2026-04-25 05:33 57.18709 65.32814 416 ft 177 kts 311°
2026-04-25 05:33 57.19546 65.31155 1195 ft 171 kts 310°
2026-04-25 05:33 57.20307 65.29576 1870 ft 166 kts 313°
2026-04-25 05:34 57.21156 65.28041 2170 ft 175 kts 314°
2026-04-25 05:34 57.22038 65.26464 2591 ft 178 kts 315°
2026-04-25 05:34 57.22703 65.24586 2991 ft 177 kts 274°
2026-04-25 05:34 57.22577 65.22345 3389 ft 186 kts 258°
2026-04-25 05:35 57.22351 65.19828 3621 ft 210 kts 258°
2026-04-25 05:35 57.22101 65.17017 3822 ft 233 kts 259°
2026-04-25 05:35 57.21835 65.13923 4030 ft 255 kts 259°
2026-04-25 05:35 57.21553 65.10623 4627 ft 264 kts 259°
2026-04-25 05:36 57.21277 65.07311 5562 ft 260 kts 259°
2026-04-25 05:36 57.21008 65.04016 6408 ft 260 kts 259°
2026-04-25 05:36 57.20652 64.99671 7322 ft 267 kts 259°
2026-04-25 05:36 57.19849 64.89851 9438 ft 273 kts 259°
2026-04-25 05:37 57.19521 64.85868 10176 ft 281 kts 258°
2026-04-25 05:37 57.19210 64.82152 10340 ft 304 kts 258°
2026-04-25 05:37 57.18774 64.78216 10512 ft 324 kts 254°
2026-04-25 05:37 57.17164 64.67122 12192 ft 334 kts 252°
2026-04-25 05:38 57.14868 64.51015 14642 ft 342 kts 252°
2026-04-25 05:38 57.14315 64.45339 15332 ft 351 kts 262°
2026-04-25 05:38 57.13873 64.27271 17767 ft 353 kts 263°
2026-04-25 05:38 57.13357 64.09076 19788 ft 360 kts 262°
2026-04-25 05:39 57.12718 63.90336 21441 ft 372 kts 262°
2026-04-25 05:39 57.12237 63.76548 22632 ft 376 kts 260°
2026-04-25 05:39 57.11523 63.68677 23553 ft 368 kts 252°
2026-04-25 05:39 57.09265 63.49994 24752 ft 380 kts 252°
2026-04-25 05:40 57.06961 63.30788 26244 ft 387 kts 252°
2026-04-25 05:40 57.04619 63.11214 27525 ft 396 kts 252°
2026-04-25 05:40 57.02250 62.91679 29003 ft 394 kts 251°
2026-04-25 05:40 56.99849 62.72178 30422 ft 391 kts 251°
2026-04-25 05:41 56.97436 62.52896 31649 ft 389 kts 250°
2026-04-25 05:41 56.94985 62.33560 32811 ft 387 kts 250°
2026-04-25 05:41 56.92499 62.14246 33550 ft 393 kts 251°
2026-04-25 05:41 56.90813 62.01228 34344 ft 389 kts 250°
2026-04-25 05:42 56.90184 61.96412 34599 ft 389 kts 250°
2026-04-25 05:42 56.89549 61.91580 34769 ft 390 kts 250°
2026-04-25 05:42 56.88910 61.86737 34887 ft 393 kts 250°
2026-04-25 05:42 56.88264 61.81852 35011 ft 395 kts 250°
2026-04-25 05:43 56.87616 61.76964 35173 ft 396 kts 250°
2026-04-25 05:43 56.87185 61.73718 35320 ft 396 kts 250°
2026-04-25 05:43 56.86536 61.68832 35540 ft 395 kts 250°
2026-04-25 05:43 56.85828 61.63543 35651 ft 397 kts 250°
2026-04-25 05:44 56.82436 61.38374 35695 ft 408 kts 250°
2026-04-25 05:44 56.77804 61.04688 35649 ft 405 kts 250°
2026-04-25 05:45 56.74767 60.81555 35655 ft 401 kts 257°
2026-04-25 05:45 56.74943 60.69677 35676 ft 410 kts 269°
2026-04-25 05:46 56.77837 60.28746 35687 ft 406 kts 268°
2026-04-25 05:46 56.79838 59.97475 35694 ft 417 kts 268°
2026-04-25 05:47 56.82348 59.54650 35651 ft 427 kts 268°
2026-04-25 05:47 56.84718 59.11879 35613 ft 417 kts 267°
2026-04-25 05:48 56.85513 58.81159 35681 ft 411 kts 264°
2026-04-25 05:48 56.86140 58.38502 35678 ft 428 kts 264°
2026-04-25 05:49 56.86700 57.94390 35614 ft 435 kts 264°
2026-04-25 05:49 56.87095 57.50664 35588 ft 424 kts 264°
2026-04-25 05:50 56.87320 57.08193 35636 ft 421 kts 264°
2026-04-25 05:50 56.87407 56.64752 35629 ft 435 kts 264°
2026-04-25 05:51 56.87499 56.30538 35569 ft 436 kts 265°
2026-04-25 05:51 56.87748 55.95701 35561 ft 420 kts 260°
2026-04-25 05:52 56.86617 55.85354 35569 ft 414 kts 245°
2026-04-25 05:52 56.78844 55.51895 35576 ft 428 kts 243°
2026-04-25 05:53 56.69492 55.11869 35508 ft 426 kts 243°
2026-04-25 05:53 56.60207 54.72907 35508 ft 416 kts 243°
2026-04-25 05:54 56.50829 54.34242 35542 ft 425 kts 243°
2026-04-25 05:54 56.40693 53.93255 35483 ft 436 kts 243°
2026-04-25 05:55 56.32868 53.61873 35438 ft 422 kts 242°
2026-04-25 05:55 56.23298 53.25001 35475 ft 431 kts 242°
2026-04-25 05:56 56.12856 52.85380 35426 ft 439 kts 242°
2026-04-25 05:56 56.04843 52.55407 35412 ft 439 kts 242°
2026-04-25 05:57 55.94378 52.16393 35402 ft 436 kts 242°
2026-04-25 05:57 55.83777 51.77553 35380 ft 435 kts 242°
2026-04-25 05:58 55.73674 51.41135 35382 ft 432 kts 242°
2026-04-25 05:58 55.66552 51.11210 35391 ft 428 kts 245°
2026-04-25 05:59 55.57289 50.72376 35396 ft 429 kts 245°
2026-04-25 05:59 55.47828 50.33484 35385 ft 432 kts 245°
2026-04-25 06:00 55.40294 50.02834 35373 ft 432 kts 249°
2026-04-25 06:00 55.39136 49.92459 35381 ft 435 kts 264°
2026-04-25 06:01 55.40362 49.64870 35379 ft 441 kts 272°
2026-04-25 06:01 55.41906 49.31977 35367 ft 441 kts 272°
2026-04-25 06:02 55.43805 48.89023 35380 ft 440 kts 272°
2026-04-25 06:02 55.45163 48.55251 35378 ft 442 kts 275°
2026-04-25 06:03 55.48874 48.32257 35393 ft 444 kts 285°
2026-04-25 06:03 55.56091 47.90439 35397 ft 445 kts 285°
2026-04-25 06:04 55.63118 47.48344 35397 ft 445 kts 285°
2026-04-25 06:04 55.68675 47.14316 35405 ft 445 kts 285°
2026-04-25 06:05 55.75233 46.73430 35416 ft 449 kts 285°
2026-04-25 06:05 55.79441 46.45979 35401 ft 448 kts 279°
2026-04-25 06:06 55.80505 46.13248 35408 ft 442 kts 274°
2026-04-25 06:06 55.81788 45.69761 35453 ft 440 kts 274°
2026-04-25 06:07 55.82918 45.26220 35472 ft 446 kts 274°
2026-04-25 06:07 55.83700 44.92152 35481 ft 450 kts 274°
2026-04-25 06:08 55.84594 44.47805 35481 ft 445 kts 274°
2026-04-25 06:08 55.85324 44.04040 35485 ft 439 kts 274°
2026-04-25 06:09 55.85890 43.60698 35518 ft 439 kts 274°
2026-04-25 06:09 55.86248 43.27470 35526 ft 441 kts 275°
2026-04-25 06:10 55.86602 42.83834 35493 ft 439 kts 276°
2026-04-25 06:10 55.86787 42.40539 35518 ft 435 kts 276°
2026-04-25 06:11 55.86829 41.97728 35523 ft 430 kts 276°
2026-04-25 06:11 55.86531 41.65514 35544 ft 427 kts 273°
2026-04-25 06:12 55.85076 41.23290 35571 ft 427 kts 273°
2026-04-25 06:12 55.84257 40.99297 35569 ft 421 kts 273°
2026-04-25 06:13 55.83884 40.89049 35571 ft 409 kts 274°
2026-04-25 06:14 55.83342 40.74161 35410 ft 400 kts 274°
2026-04-25 06:14 55.83161 40.69182 35141 ft 408 kts 274°
2026-04-25 06:14 55.82969 40.64017 34834 ft 417 kts 274°
2026-04-25 06:14 55.82444 40.50627 34078 ft 433 kts 273°
2026-04-25 06:15 55.82136 40.43149 33655 ft 437 kts 273°
2026-04-25 06:15 55.81914 40.38019 33331 ft 430 kts 273°
2026-04-25 06:15 55.81681 40.32646 33007 ft 430 kts 273°
2026-04-25 06:15 55.81454 40.27346 32683 ft 429 kts 273°
2026-04-25 06:16 55.81230 40.22126 32367 ft 429 kts 273°
2026-04-25 06:16 55.80998 40.16761 32042 ft 430 kts 273°
2026-04-25 06:16 55.80768 40.11476 31719 ft 428 kts 273°
2026-04-25 06:16 55.80535 40.06206 31402 ft 427 kts 274°
2026-04-25 06:17 55.80301 40.00945 31079 ft 426 kts 274°
2026-04-25 06:17 55.80069 39.95766 30758 ft 426 kts 274°
2026-04-25 06:17 55.79833 39.90527 30432 ft 425 kts 274°
2026-04-25 06:17 55.79594 39.85294 30112 ft 424 kts 274°
2026-04-25 06:18 55.79348 39.80048 29783 ft 424 kts 273°
2026-04-25 06:18 55.79042 39.74823 29458 ft 426 kts 272°
2026-04-25 06:18 55.78693 39.69609 29133 ft 424 kts 271°
2026-04-25 06:18 55.78333 39.64426 28807 ft 421 kts 271°
2026-04-25 06:19 55.77980 39.59265 28487 ft 420 kts 271°
2026-04-25 06:19 55.77632 39.54112 28149 ft 420 kts 272°
2026-04-25 06:19 55.77290 39.48963 27835 ft 419 kts 272°
2026-04-25 06:19 55.76946 39.43823 27518 ft 419 kts 271°
2026-04-25 06:20 55.76598 39.38687 27189 ft 419 kts 271°
2026-04-25 06:20 55.76243 39.33553 26872 ft 419 kts 271°
2026-04-25 06:20 55.75881 39.28410 26536 ft 420 kts 271°
2026-04-25 06:20 55.75517 39.23260 26216 ft 421 kts 270°
2026-04-25 06:21 55.75150 39.18098 25891 ft 420 kts 270°
2026-04-25 06:21 55.74784 39.13040 25561 ft 409 kts 270°
2026-04-25 06:21 55.74424 39.08040 25233 ft 405 kts 270°
2026-04-25 06:21 55.74070 39.03086 24912 ft 405 kts 270°
2026-04-25 06:22 55.73713 38.98115 24596 ft 407 kts 270°
2026-04-25 06:22 55.73351 38.93146 24264 ft 406 kts 270°
2026-04-25 06:22 55.72975 38.88175 23946 ft 406 kts 270°
2026-04-25 06:22 55.72587 38.83206 23640 ft 407 kts 269°
2026-04-25 06:23 55.72200 38.78293 23661 ft 396 kts 269°
2026-04-25 06:23 55.71820 38.73486 23662 ft 390 kts 269°
2026-04-25 06:23 55.71448 38.68747 23615 ft 387 kts 270°
2026-04-25 06:23 55.71088 38.63964 23155 ft 394 kts 270°
2026-04-25 06:24 55.70729 38.59124 22770 ft 399 kts 269°
2026-04-25 06:24 55.70361 38.54212 22354 ft 404 kts 269°
2026-04-25 06:24 55.70112 38.50923 22076 ft 407 kts 269°
2026-04-25 06:24 55.69729 38.45926 21654 ft 411 kts 269°
2026-04-25 06:25 55.69215 38.39246 21081 ft 413 kts 269°
2026-04-25 06:25 55.68825 38.34190 20649 ft 415 kts 268°
2026-04-25 06:25 55.68433 38.29101 20219 ft 417 kts 268°
2026-04-25 06:25 55.68038 38.24052 19786 ft 411 kts 268°
2026-04-25 06:26 55.67769 38.20686 19595 ft 403 kts 268°
2026-04-25 06:26 55.67379 38.15908 19475 ft 390 kts 268°
2026-04-25 06:26 55.66995 38.11215 19332 ft 378 kts 268°
2026-04-25 06:26 55.66625 38.06672 19201 ft 368 kts 268°
2026-04-25 06:27 55.66266 38.02257 19063 ft 357 kts 268°
2026-04-25 06:27 55.65915 37.97934 18958 ft 351 kts 268°
2026-04-25 06:27 55.65567 37.93695 18844 ft 346 kts 268°
2026-04-25 06:27 55.65220 37.89508 18724 ft 342 kts 268°
2026-04-25 06:28 55.64621 37.85401 18478 ft 358 kts 252°
2026-04-25 06:28 55.63368 37.81486 18115 ft 368 kts 246°
2026-04-25 06:28 55.62041 37.77598 17713 ft 370 kts 246°
2026-04-25 06:28 55.60715 37.73671 17303 ft 373 kts 246°
2026-04-25 06:29 55.59399 37.69710 16890 ft 373 kts 246°
2026-04-25 06:29 55.58093 37.65746 16484 ft 374 kts 246°
2026-04-25 06:29 55.56762 37.61782 16071 ft 378 kts 243°
2026-04-25 06:29 55.54882 37.58411 15632 ft 396 kts 219°
2026-04-25 06:30 55.52333 37.56423 15340 ft 407 kts 198°
2026-04-25 06:30 55.49526 37.55729 15054 ft 407 kts 190°
2026-04-25 06:30 55.46753 37.55208 14713 ft 406 kts 190°
2026-04-25 06:30 55.43945 37.54660 14372 ft 404 kts 190°
2026-04-25 06:31 55.41166 37.54059 14026 ft 401 kts 191°
2026-04-25 06:31 55.38410 37.53440 13673 ft 396 kts 191°
2026-04-25 06:31 55.35737 37.52846 13295 ft 377 kts 191°
2026-04-25 06:31 55.33167 37.52605 12922 ft 365 kts 182°
2026-04-25 06:32 55.30666 37.52879 12530 ft 354 kts 179°
2026-04-25 06:32 55.28255 37.53226 12112 ft 343 kts 179°
2026-04-25 06:32 55.25901 37.53509 11682 ft 334 kts 180°
2026-04-25 06:32 55.23607 37.53737 11257 ft 327 kts 181°
2026-04-25 06:33 55.21358 37.53935 10826 ft 320 kts 182°
2026-04-25 06:33 55.17500 37.53757 10192 ft 305 kts 187°
2026-04-25 06:33 55.13343 37.53422 9489 ft 293 kts 187°
2026-04-25 06:33 55.11264 37.53280 9132 ft 287 kts 187°
2026-04-25 06:34 55.09284 37.53152 8779 ft 282 kts 187°
2026-04-25 06:34 55.07361 37.52827 8412 ft 271 kts 203°
2026-04-25 06:34 55.05818 37.51211 8065 ft 253 kts 232°
2026-04-25 06:34 55.04825 37.48793 7741 ft 239 kts 250°
2026-04-25 06:35 55.04271 37.45628 7384 ft 224 kts 260°
2026-04-25 06:35 55.03900 37.43027 7018 ft 218 kts 260°
2026-04-25 06:35 55.03660 37.40485 6709 ft 206 kts 278°
2026-04-25 06:35 55.04137 37.38179 6550 ft 206 kts 303°
2026-04-25 06:36 55.05184 37.36410 6396 ft 216 kts 327°
2026-04-25 06:36 55.06632 37.35612 6273 ft 225 kts 352°
2026-04-25 06:36 55.08211 37.35657 6178 ft 228 kts 357°
2026-04-25 06:36 55.09772 37.35755 6056 ft 227 kts 357°
2026-04-25 06:37 55.12509 37.35928 6004 ft 220 kts 357°
2026-04-25 06:37 55.15586 37.36114 6002 ft 223 kts 357°
2026-04-25 06:37 55.18686 37.36297 6016 ft 227 kts 357°
2026-04-25 06:37 55.21123 37.36438 6003 ft 225 kts 357°
2026-04-25 06:38 55.23189 37.36560 5963 ft 222 kts 357°
2026-04-25 06:38 55.24678 37.36650 5823 ft 211 kts 357°
2026-04-25 06:38 55.26094 37.36739 5663 ft 197 kts 356°
2026-04-25 06:38 55.27417 37.36816 5532 ft 182 kts 356°
2026-04-25 06:39 55.28873 37.36905 5375 ft 167 kts 356°
2026-04-25 06:39 55.30743 37.37012 5149 ft 161 kts 355°
2026-04-25 06:39 55.31783 37.36561 5004 ft 152 kts 318°
2026-04-25 06:39 55.33055 37.34347 5021 ft 158 kts 313°
2026-04-25 06:40 55.34566 37.31626 4488 ft 154 kts 313°
2026-04-25 06:40 55.35815 37.29345 4102 ft 147 kts 313°
2026-04-25 06:40 55.36627 37.27855 4036 ft 163 kts 313°
2026-04-25 06:40 55.37449 37.26342 3952 ft 164 kts 313°
2026-04-25 06:41 55.38231 37.24894 3877 ft 163 kts 313°
2026-04-25 06:41 55.39000 37.23467 3803 ft 163 kts 313°
2026-04-25 06:41 55.39776 37.22027 3726 ft 162 kts 313°
2026-04-25 06:41 55.40548 37.20592 3657 ft 161 kts 312°
2026-04-25 06:42 55.41319 37.19152 3573 ft 162 kts 312°
2026-04-25 06:42 55.42092 37.17712 3501 ft 162 kts 313°
2026-04-25 06:42 55.42863 37.16275 3421 ft 161 kts 313°
2026-04-25 06:42 55.43627 37.14846 3353 ft 161 kts 313°
2026-04-25 06:43 55.44448 37.13499 3275 ft 163 kts 319°
2026-04-25 06:43 55.45324 37.12197 3215 ft 166 kts 319°
2026-04-25 06:43 55.46216 37.10877 3139 ft 164 kts 319°
2026-04-25 06:43 55.47060 37.09620 3030 ft 154 kts 318°
2026-04-25 06:44 55.47848 37.08445 2925 ft 144 kts 318°
2026-04-25 06:44 55.48651 37.07247 2820 ft 154 kts 319°
2026-04-25 06:44 55.49539 37.06197 2740 ft 158 kts 340°
2026-04-25 06:44 55.50580 37.05635 2760 ft 159 kts 339°
2026-04-25 06:45 55.51628 37.05015 2760 ft 159 kts 339°
2026-04-25 06:45 55.52684 37.04404 2606 ft 161 kts 343°
2026-04-25 06:45 55.53795 37.04615 2356 ft 169 kts 31°
2026-04-25 06:45 55.54436 37.06318 2170 ft 169 kts 64°
2026-04-25 06:46 55.54932 37.08155 2052 ft 161 kts 57°
2026-04-25 06:46 55.55441 37.09864 2027 ft 154 kts 59°
2026-04-25 06:46 55.55862 37.11517 2013 ft 138 kts 60°
2026-04-25 06:46 55.56193 37.13159 1899 ft 149 kts 68°
2026-04-25 06:47 55.56534 37.14950 1781 ft 155 kts 66°
2026-04-25 06:47 55.56959 37.16671 1532 ft 150 kts 58°
2026-04-25 06:47 55.57382 37.18371 1357 ft 151 kts 66°
2026-04-25 06:47 55.57768 37.20111 1117 ft 152 kts 63°
2026-04-25 06:48 55.58171 37.21808 923 ft 150 kts 64°
2026-04-25 06:48 55.58560 37.23502 734 ft 147 kts 65°
2026-04-25 06:48 55.58928 37.25118 658 ft 130 kts 69°
2026-04-25 06:48 55.59217 37.26415 667 ft 99 kts 68°
2026-04-25 06:49 55.59453 37.27460 674 ft 84 kts 69°
2026-04-25 06:49 55.59614 37.28064 682 ft 32 kts 45°
2026-04-25 06:49 55.59751 37.28279 678 ft 1 kts 39°
2026-04-25 06:50 55.59770 37.28305 678 ft 9 kts 38°
2026-04-25 06:50 55.59833 37.28392 676 ft 13 kts 43°
2026-04-25 06:50 55.59877 37.28533 679 ft 15 kts 68°
2026-04-25 06:50 55.59925 37.28755 683 ft 23 kts 68°
2026-04-25 06:51 55.59998 37.28917 683 ft 17 kts 356°
2026-04-25 06:51 55.60122 37.28855 677 ft 19 kts 328°
2026-04-25 06:51 55.60212 37.28705 678 ft 17 kts 315°
2026-04-25 06:51 55.60257 37.28561 675 ft 11 kts 285°
2026-04-25 06:52 55.60271 37.28470 675 ft 0 kts 285°